030619 H41  0.3+  0.8-    030802 349  0.3-  0.7-    040916 704  1.7-  1.2-  

030619 H41  0.7+  0.1+    030802 349  0.1+  0.6-    041005 704  0.4+  1.6-  

030620 H41  0.6+  0.1-    030802 360  0.4-  0.6-    041005 704  0.1+  1.6-  

030620 349  0.0   0.6-    030802 360  0.3-  1.0-    041005 704  0.2-  1.2-  

030620 349  0.2+  0.4+    030802 A46  1.2+  0.7-    041005 704 (0.8-  2.5-) 

030620 349  0.5+  0.2+    030802 A46  0.1+  0.8-    041012 360  0.8-  1.6-  

030620 235  0.6+  0.8+    030802 A46  0.4+  0.3+    041012 360  0.1-  1.0-  

030621 213  0.0   0.0     030802 A46  0.4+  0.8-    041012 360  0.7-  1.1-  

030621 213  0.0   0.0     030802 A46  0.0   0.1+                            

030621 213  0.0   0.3-    030802 A46  0.2-  0.3-                            



NAKANO

         **** Don't distribute anyone except personal use only ****

                (C) Copyright 2004 OAA/ComputingSection

write mail from CFAD0::NAKANO on 2004-11-03 02:43:59(JST).



                 



NAKANO

         **** Don't distribute anyone except personal use only ****

                (C) Copyright 2004 OAA/ComputingSection

write mail from CFAD0::NAKANO on 2004-11-03 02:43:59(JST).



    C/2003 H3 (NEAT)                                                      

Epoch 2003 May 1.0 TT = JDT 2452760.5  

T 2003 Apr. 24.23952 TT                                 Nakano

q   2.9014754            (2000.0)            P               Q

z  +0.0000927      Peri.    6.47971     +0.07268897     +0.72999739

 +/-0.0000010      Node   269.41806     -0.94285291     -0.17186421

e   0.9997311      Incl.   42.81306     -0.32518412     +0.66148810

From 726 observations 2003 Apr. 30-2004 June 13, mean residual 0".59.

   (1/a)org.= +0.000400, (1/a)fut.= -0.000152 (+/-0.000001), Q= 8.

See residuals in http://www.oaa.gr.jp/~oaacs/nk/nk1080.htm



NAKANO

         **** Don't distribute anyone except personal use only ****

                (C) Copyright 2004 OAA/ComputingSection

write mail from CFAD0::NAKANO on 2004-07-03 22:20:30(JST).

 



    C/2003 H3 (NEAT)                                                      

Epoch 2003 May  1.0 TT = JDT 2452760.5  

T 2003 Apr. 24.24441 TT                                 Nakano

q   2.9014790            (2000.0)            P               Q

z  +0.0001018      Peri.    6.48118     +0.07270676     +0.72999771

 +/-0.0000022      Node   269.41799     -0.94285731     -0.17183991

e   0.9997048      Incl.   42.81289     -0.32516737     +0.66149406

From 719 observations 2003 Apr. 30-2004 Jan. 5, mean residual 0".58.

   (1/a)org.= +0.000409, (1/a)fut.= -0.000143 (+/-0.000002), Q= 7.



NAKANO

         **** Don't distribute anyone except personal use only ****

                (C) Copyright 2004 OAA/ComputingSection

write mail from CFAD0::NAKANO on 2004-02-22 01:35:38(JST).

 



    C/2003 H3 (NEAT)                                                      

Epoch 2003 May 1.0 TT = JDT 2452760.5  

T 2003 Apr. 24.24687 TT                                 Nakano

q   2.9014760            (2000.0)            P               Q

z  +0.0001078      Peri.    6.48193     +0.07271491     +0.72999897

 +/-0.0000029      Node   269.41790     -0.94285954     -0.17182788

e   0.9996872      Incl.   42.81271     -0.32515908     +0.66149579

From 714 observations 2003 Apr. 30-Nov. 1, mean residual 0".58.

   (1/a)org.= +0.000415, (1/a)fut.= -0.000137 (+/-0.000003), Q= 7.

NAKANO

         **** Don't distribute anyone except personal use only ****

                (C) Copyright 2003 OAA/ComputingSection

write mail from CFAD0::NAKANO on 2003-12-14 18:52:00(JST).

 

   C/2003 H3 (NEAT)                                                      

Epoch 2003 May 1.0 TT = JDT 2452760.5  

T 2003 Apr. 24.24620 TT                                 Nakano

q   2.9014779            (2000.0)            P               Q

z  +0.0001079      Peri.    6.48173     +0.07271319     +0.72999811

 +/-0.0000043      Node   269.41795     -0.94285896     -0.17183090

e   0.9996869      Incl.   42.81280     -0.32516116     +0.66149596

From 640 observations 2003 Apr. 30-Aug. 29, mean residual 0".57.

   (1/a)org.= +0.000416, (1/a)fut.= -0.000136 (+/-0.000004), Q= 6.

                         

NAKANO

         **** Don't distribute anyone except personal use only ****

                (C) Copyright 2003 OAA/ComputingSection

write mail from CFAD0::NAKANO on 2003-09-14 04:53:52(JST).





   C/2003 H3 (NEAT)                                                      

Epoch 2003 May 1.0 TT = JDT 2452760.5  

T 2003 Apr. 24.24534 TT                                 Nakano

q   2.9014523            (2000.0)            P               Q

z  +0.0001184      Peri.    6.48153     +0.07270640     +0.73000438

 +/-0.0000046      Node   269.41767     -0.94285842     -0.17183515

e   0.9996563      Incl.   42.81233     -0.32516422     +0.66148794

From 577 observations 2003 Apr. 30-Aug. 12, mean residual 0".56.

   (1/a)org.= +0.000426, (1/a)fut.= -0.000126 (+/-0.000005), Q= 6.



NAKANO

         **** Don't distribute anyone except personal use only ****

                (C) Copyright 2003 OAA/ComputingSection

write mail from CFAD0::NAKANO on 2003-08-14 04:29:34(JST).

 

    C/2003 H3 (NEAT)                                                      

T 2003 Apr. 24.24066 TT                                 Nakano

q   2.9016242            (2000.0)            P               Q

                   Peri.    6.47999     +0.07271216     +0.72997777

                   Node   269.41930     -0.94285310     -0.17185223

e   1.0            Incl.   42.81450     -0.32517836     +0.66151287

From 226 observations 2003 Apr. 30-June 10.



NAKANO

         **** Don't distribute anyone except personal use only ****

                (C) Copyright 2003 OAA/ComputingSection

write mail from CFAD0::NAKANO on 2003-06-18 05:56:37(JST).

 



◎C/2003 H3の軌道と予報位置です



  CCD 全光度は,5月28日に15.9等(門田健一,浅見敦夫),核光度は

6月1日に17.5等(和久田俊一)でした.軌道は,前のもので良くあっ

ています.



    C/2003 H3 (NEAT)                                                      

T 2003 Apr. 24.22486 TT                                 Nakano

q   2.9015746            (2000.0)            P               Q

                   Peri.    6.47569     +0.07264809     +0.73000144

                   Node   269.41865     -0.94284017     -0.17192335

e   1.0            Incl.   42.81306     -0.32523019     +0.66146826

From 162 observations 2003 Apr. 30-June 1.

 

Date/        TT  R.A.(2000) Decl.     Delta   r     Daily motion  Mag.  Moon Age

              h    h  m       。  ,                      ,  / PA 。  m1      。

2003 June  1 18  19 44.29  -05 06.2   2.154  2.927    19.1 / 343  15.8  146  .02

           2 18  19 43.92  -04 47.9   2.147  2.929    19.2 / 342  15.8  154  .06

           3 18  19 43.52  -04 29.6   2.140  2.930    19.3 / 341  15.8  159  .12

           4 18  19 43.11  -04 11.3   2.133  2.932    19.3 / 340  15.8  157  .19

           5 18  19 42.68  -03 53.1   2.127  2.933    19.4 / 339  15.8  149  .28

           6 18  19 42.22  -03 34.9   2.120  2.935    19.5 / 339  15.8  139  .38

           7 18  19 41.75  -03 16.8   2.115  2.936    19.5 / 338  15.8  127  .49

           8 18  19 41.25  -02 58.7   2.109  2.938    19.6 / 337  15.8  114  .60

           9 18  19 40.73  -02 40.7   2.103  2.939    19.7 / 336  15.8  101  .71

          10 18  19 40.20  -02 22.7   2.098  2.941    19.7 / 335  15.8   88  .81

          11 18  19 39.65  -02 04.9   2.093  2.943    19.7 / 334  15.8   74  .89

          12 18  19 39.08  -01 47.1   2.089  2.944    19.8 / 333  15.8   61  .96

          13 18  19 38.49  -01 29.4   2.084  2.946    19.8 / 333  15.8   48  .99

          14 18  19 37.88  -01 11.8   2.080  2.948    19.8 / 332  15.8   36 1.00

          15 18  19 37.26  -00 54.2   2.076  2.950    19.9 / 331  15.8   28  .98

          16 18  19 36.62  -00 36.8   2.072  2.951    19.9 / 330  15.8   25  .93

          17 18  19 35.96  -00 19.6   2.069  2.953    19.9 / 330  15.8   29  .86

          18 18  19 35.29  -00 02.4   2.066  2.955    19.9 / 329  15.8   38  .78

          19 18  19 34.61  +00 14.6   2.063  2.957    19.9 / 328  15.8   48  .68

          20 18  19 33.91  +00 31.5   2.060  2.959    19.9 / 327  15.8   59  .59

          21 18  19 33.19  +00 48.3   2.058  2.961    19.8 / 327  15.8   70  .49

          22 18  19 32.47  +01 04.8   2.056  2.963    19.8 / 326  15.8   81  .39

          23 18  19 31.73  +01 21.3   2.054  2.965    19.8 / 325  15.8   91  .30

          24 18  19 30.98  +01 37.5   2.053  2.967    19.7 / 325  15.8  102  .22

          25 18  19 30.22  +01 53.6   2.052  2.969    19.7 / 324  15.8  113  .14

          26 18  19 29.45  +02 09.5   2.051  2.971    19.6 / 323  15.8  123  .08

          27 18  19 28.67  +02 25.3   2.050  2.974    19.5 / 323  15.8  132  .04

          28 18  19 27.88  +02 40.8   2.050  2.976    19.4 / 322  15.8  141  .01

          29 18  19 27.08  +02 56.1   2.050  2.978    19.3 / 321  15.8  148  .00

          30 18  19 26.28  +03 11.2   2.050  2.980    19.2 / 321  15.8  151  .01

     July  1 18  19 25.47  +03 26.1   2.050  2.983    19.1 / 320  15.8  149  .04

NAKANO

         **** Don't distribute anyone except personal use only ****

                (C) Copyright 2003 OAA/ComputingSection

write mail from CFAD0::NAKANO on 2003-06-03 04:56:20(JST).

 

◎C/2003 H3の軌道と予報位置です



 5月の CCD全光度が1日に16.1等(上尾;門田健一),2日に16.8等(

シェロ−ド),16.2等(豊中;江崎裕介),3日に16.1等,9日に16.5等

(門田)と報告されています.



    C/2003 H3 (NEAT)                                                      

T 2003 Apr. 23.55656 TT                                 Nakano

q   2.9002537            (2000.0)            P               Q

                   Peri.    6.28996     +0.07007471     +0.73061960

                   Node   269.40446     -0.94227711     -0.17499303

e   1.0            Incl.   42.78241     -0.32741927     +0.65997912

From 76 observations 2003 Apr. 30-May 10.

 

